Weather History for Burlington, CO

Change the Weather History Date:

Saturday, December 24, 2011

  Actual Average Record
Temperature  
Mean Temperature 29 °F 28 °F  
Max Temperature 42 °F 41 °F 79 °F (1955)
Min Temperature 15 °F 15 °F -16 °F (1983)
Degree Days  
Heating Degree Days 36    
Moisture  
Dew Point 12 °F    
Average Humidity 57    
Maximum Humidity 74    
Minimum Humidity 37    
Precipitation  
Precipitation 0.00 in 0.01 in 0.07 in (1941)
Month to date precipitation 0.04 0.36  
Year to date precipitation 16.09 17.39  
Sea Level Pressure  
Sea Level Pressure 30.46 in    
Wind  
Wind Speed 11 mph (WNW)    
Max Wind Speed 16 mph    
Max Gust Speed -    
Visibility 10 miles    
Events      
T = Trace of Precipitation, MM = Missing Value Source: NWS Daily Summary

Daily Weather History Graph

Daily Weather History Graph

Search for Another Location

Airport:

Trip Planner

Search our weather history database for the weather conditions in past years. The results will help you decide how hot, cold, wet, or windy it might be!

Date:

Astronomy

Dec. 24, 2011 Rise Set
Actual Time 7:06 AM MST 4:30 PM MST
Civil Twilight 6:36 AM MST 5:01 PM MST
Nautical Twilight 6:02 AM MST 5:34 PM MST
Astronomical Twilight 5:29 AM MST 6:07 PM MST
Moon 6:56 AM MST (12/24) 4:46 PM MST (12/24)
Length of Visible Light 10h 24m
Length of Day
9h 24m
New Moon, 0% of the Moon is Illuminated
Dec 24
New Moon
Dec 31
First Quarter
Jan 9
Full
Jan 16
Last Quarter
Jan 23
New

Hourly Weather History & Observations

Time (MST) Temp. Windchill Dew Point Humidity Pressure Visibility Wind Dir Wind Speed Gust Speed Precip Events Conditions
12:53 AM 16.0 °F 3.6 °F 6.1 °F 65% 30.39 in 10.0 mi West 10.4 mph - N/A   Clear
1:53 AM 16.0 °F 2.9 °F 6.1 °F 65% 30.39 in 10.0 mi West 11.5 mph - N/A   Clear
2:53 AM 17.1 °F 4.3 °F 6.1 °F 62% 30.39 in 10.0 mi West 11.5 mph - N/A   Clear
3:53 AM 23.0 °F 10.1 °F 9.0 °F 55% 30.40 in 10.0 mi WNW 15.0 mph - N/A   Clear
4:53 AM 23.0 °F 10.1 °F 9.0 °F 55% 30.42 in 10.0 mi NW 15.0 mph - N/A   Clear
5:53 AM 23.0 °F 10.6 °F 9.0 °F 55% 30.45 in 10.0 mi NW 13.8 mph - N/A   Clear
6:53 AM 19.0 °F 5.0 °F 8.1 °F 62% 30.50 in 10.0 mi NW 15.0 mph - N/A   Clear
7:53 AM 21.0 °F 8.6 °F 9.0 °F 60% 30.51 in 10.0 mi NW 12.7 mph - N/A   Clear
8:53 AM 27.0 °F 15.6 °F 12.0 °F 53% 30.52 in 10.0 mi NW 13.8 mph - N/A   Clear
9:53 AM 32.0 °F 23.0 °F 15.1 °F 50% 30.52 in 10.0 mi NW 11.5 mph - N/A   Clear
10:53 AM 36.0 °F 28.5 °F 17.1 °F 46% 30.49 in 10.0 mi NW 10.4 mph - N/A   Clear
11:53 AM 37.9 °F 30.9 °F 18.0 °F 45% 30.46 in 10.0 mi NW 10.4 mph - N/A   Clear
12:53 PM 39.9 °F 32.9 °F 17.1 °F 40% 30.44 in 10.0 mi NW 11.5 mph - N/A   Clear
1:53 PM 42.1 °F 38.4 °F 17.1 °F 37% 30.42 in 10.0 mi NW 5.8 mph - N/A   Clear
2:53 PM 41.0 °F 36.4 °F 19.0 °F 41% 30.42 in 10.0 mi West 6.9 mph - N/A   Clear
3:53 PM 37.0 °F 32.4 °F 21.9 °F 54% 30.42 in 10.0 mi WNW 5.8 mph - N/A   Clear
4:53 PM 28.0 °F 22.8 °F 19.0 °F 69% 30.45 in 10.0 mi West 4.6 mph - N/A   Clear
5:53 PM 23.0 °F 13.9 °F 15.1 °F 72% 30.47 in 10.0 mi West 8.1 mph - N/A   Clear
6:53 PM 19.9 °F 8.6 °F 12.9 °F 74% 30.49 in 10.0 mi West 10.4 mph - N/A   Clear
7:53 PM 18.0 °F 6.9 °F 10.0 °F 71% 30.50 in 10.0 mi West 9.2 mph - N/A   Clear
8:53 PM 19.0 °F 7.5 °F 10.9 °F 71% 30.51 in 10.0 mi West 10.4 mph - N/A   Clear
9:53 PM 19.9 °F 8.6 °F 10.0 °F 65% 30.49 in 10.0 mi WNW 10.4 mph - N/A   Clear
10:53 PM 24.1 °F 11.0 °F 8.1 °F 51% 30.48 in 10.0 mi NW 16.1 mph - N/A   Clear
11:53 PM 21.9 °F 9.8 °F 10.0 °F 60% 30.49 in 10.0 mi WNW 12.7 mph - N/A   Clear